This demonstration page uses our WeatherBlox Daily Observations layout. Learn more.

Left ArrowRight Arrow

Hourly Observations for May 12, 2021

Temp ( °F °C ) Dew Point ( °F °C ) Humidity (%) Winds ( mph kmh ) Pressure ( in mb ) Visibility ( mi km ) Precip ( " mm )
12:56 am 00:56 Cloudy 47 8.3 32 0 56 56 ESE 3 6 30.37 1029 10 16 0.00 0.00
1:56 am 01:56 Mostly Cloudy 45 7.2 34 1.1 66 66 E 5 7 30.37 1029 10 16 0.00 0.00
2:56 am 02:56 Cloudy 46 7.8 33 0.6 61 61 Calm 30.37 1029 10 16 0.00 0.00
3:56 am 03:56 Cloudy 44 6.7 35 1.7 71 71 NNE 3 6 30.37 1029 10 16 0.00 0.00
4:56 am 04:56 Mostly Clear 42 5.6 34 1.1 73 73 Calm 30.38 1029 10 16 0.00 0.00
5:56 am 05:56 Clear 39 3.9 33 0.6 79 79 N 3 6 30.38 1029 10 16 0.00 0.00
6:56 am 06:56 Sunny 40 4.4 32 0 73 73 NNE 3 6 30.40 1029 10 16 0.00 0.00
7:56 am 07:56 Sunny 44 6.7 35 1.7 71 71 Calm 30.42 1030 10 16 0.00 0.00
8:56 am 08:56 Sunny 50 10 37 2.8 61 61 ESE 5 7 30.42 1030 10 16 0.00 0.00
9:56 am 09:56 Sunny 55 12.8 37 2.8 51 51 S 5 7 30.42 1030 10 16 0.00 0.00
10:56 am 10:56 Sunny with Light Rain 57 13.9 32 0 39 39 W 3 6 30.40 1030 10 16 0.00 0.00
11:56 am 11:56 Mostly Sunny 58 14.4 31 -0.6 36 36 VRB 3 6 30.40 1030 10 16 0.00 0.00
12:56 pm 12:56 Partly Cloudy 61 16.1 31 -0.6 32 32 Calm 30.38 1029 10 16 0.00 0.00
1:56 pm 13:56 Sunny 62 16.7 33 0.6 34 34 VRB 5 7 30.36 1028 10 16 0.00 0.00
2:56 pm 14:56 Mostly Cloudy 63 17.2 30 -1.1 29 29 SW 8 13 30.33 1027 10 16 0.00 0.00
3:56 pm 15:56 Partly Cloudy 62 16.7 29 -1.7 29 29 S 7 11 30.32 1027 10 16 0.00 0.00
4:56 pm 16:56 Cloudy 62 16.7 32 0 32 32 S 13 20 30.31 1027 10 16 0.00 0.00
5:56 pm 17:56 Mostly Cloudy 62 16.7 32 0 32 32 SSE 14 22 30.30 1026 10 16 0.00 0.00
6:56 pm 18:56 Mostly Cloudy 62 16.7 32 0 32 32 S 13 20 30.29 1026 10 16 0.00 0.00
7:56 pm 19:56 Cloudy 59 15 35 1.7 41 41 S 15 24 30.30 1026 10 16 0.00 0.00
8:56 pm 20:56 Cloudy 57 13.9 37 2.8 47 47 S 10 17 30.32 1027 10 16 0.00 0.00
9:56 pm 21:56 Mostly Cloudy 56 13.3 37 2.8 49 49 S 13 20 30.32 1027 10 16 0.00 0.00
10:56 pm 22:56 Clear 52 11.1 38 3.3 59 59 SSE 12 19 30.33 1027 10 16 0.00 0.00
11:56 pm 23:56 Clear 48 8.9 38 3.3 68 68 S 7 11 30.34 1028 10 16 0.00 0.00

Powered by AerisWeather